Location: Astronomy Club of Akron Observatory
(40.9700°N, 81.5606°W)
Time: 20:00:08
(UTC-04:00)

Daily predictions for brighter satellites

Satellite Brightness Start Highest point End
(mag) Time Altitude Azimuth Time Altitude Azimuth Time Altitude Azimuth
Cosmos 1937 Rocket 3.6 20:03:13 10° S 20:08:20 57° ESE 20:13:31 10° NNE
H-2A R/B 3.5 20:07:37 10° SE 20:11:05 32° ENE 20:14:38 10° N
SL-27 R/B 3.3 20:08:55 10° N 20:12:09 31° ENE 20:15:24 10° SE
Cosmos 1953 4.1 20:10:33 10° ESE 20:12:40 14° E 20:14:46 10° NE
Meteor 1-24 Rocket 3.9 20:07:31 10° N 20:12:50 50° ENE 20:18:19 10° SSE
Resurs 1-3 4.4 20:09:36 10° SE 20:13:29 32° ENE 20:17:24 10° N
FREGAT/IRIS 2.6 20:11:20 10° SSE 20:14:24 90° N 20:17:29 10° NNW
Meteor 1-4 Rocket 4.4 20:14:15 10° ESE 20:15:35 12° E 20:16:56 10° ENE
SeaSat 1 2.4 20:10:47 10° SSE 20:15:42 76° ENE 20:20:38 10° NNW
Cosmos 1707 2.8 20:12:07 10° N 20:16:01 84° W 20:19:54 10° S
Cosmos 1544 4.5 20:16:54 10° SE 20:19:30 19° E 20:22:06 10° NE
Cosmos 2298 Rocket 4.1 20:15:27 10° SSW 20:20:45 89° WNW 20:26:07 10° NNE
Cosmos 2082 Rocket 3.6 20:18:05 10° N 20:22:17 21° NE 20:26:11 11° E
Meteor 2-5 Rocket 4.0 20:17:31 10° NNW 20:23:14 79° W 20:29:03 10° S
Lacrosse 5 rocket 3.6 20:30:54 10° N 20:32:24 12° NNE 20:33:53 10° NE
COSMOS 2406 3.9 20:27:11 10° NNW 20:32:48 57° WSW 20:38:22 10° S
Cosmos 1766 3.2 20:29:22 10° S 20:33:10 62° E 20:37:01 10° NNE
Cosmos 1934 Rocket 3.9 20:28:52 10° S 20:35:00 75° E 20:41:04 10° N
Tiangong 1 1.0 20:35:24 10° WNW 20:38:20 68° SSW 20:40:10 20° ESE
Okean 3 Rocket 3.9 20:34:32 10° N 20:38:44 42° ENE 20:42:55 10° SSE
RESURS DK-1 2.3 20:37:28 10° NNW 20:41:37 72° ENE 20:45:43 10° SSE
Cosmos 1844 4.1 20:38:42 10° SSW 20:44:26 69° WNW 20:50:14 10° NNE
Abrixas 3.7 20:43:03 10° NW 20:45:36 29° NNE 20:46:54 20° ENE
Cosmos 1867 4.4 20:41:08 10° S 20:45:42 28° ESE 20:50:19 10° NE
USA 186 1.5 20:50:05 35° ENE 20:50:05 35° ENE 20:52:10 10° N
USA 215 3.4 20:54:14 10° NE 21:00:34 50° SE 21:06:51 10° SSW
GP-B 3.5 20:58:25 15° SSE 21:01:43 42° E 21:05:55 10° NNE
Spot 2 Rocket 3.7 20:56:58 10° S 21:02:03 73° WSW 21:07:11 10° NNW
Cosmos 2344 3.8 20:54:27 10° SW 21:02:07 78° NW 21:10:46 10° NNE
CZ-2D R/B 3.3 20:58:29 10° S 21:02:20 83° W 21:06:14 10° NNW
Cosmos 1674 3.5 20:59:20 10° NNE 21:02:41 30° ENE 21:02:55 29° E
Resurs 01 Rocket 2.2 21:00:02 10° S 21:04:23 59° W 21:08:46 10° NNW
Cosmos 1805 3.1 21:04:27 10° S 21:08:20 83° E 21:12:15 10° N
Cosmos 1076 Rocket 3.4 21:05:55 10° N 21:10:08 60° E 21:12:27 25° SSE
Cosmos 1766 Rocket 3.8 21:10:17 10° N 21:14:39 49° E 21:16:04 35° SE
Cosmos 1605 Rocket 4.1 21:08:29 10° S 21:14:43 78° W 21:21:06 10° N
Cosmos 2100 Rocket 4.3 21:08:59 10° SSE 21:14:54 45° E 21:20:54 10° NNE
ALOS 4.1 21:10:59 10° SSW 21:15:06 31° W 21:19:16 10° NNW
Envisat 3.0 21:17:15 26° SE 21:20:00 62° ENE 21:25:02 10° N
Fregat R/B Cluster 11 4.2 21:14:24 10° SSW 21:20:59 88° ESE 21:24:24 10° NNE
Helios 1B rocket 2.4 21:17:14 10° NNE 21:21:24 89° WNW 21:25:31 10° SSW
YAOGAN 6 4.3 21:22:58 21° NE 21:22:58 21° NE 21:24:51 10° NNE
Cosmos 1470 3.6 21:23:18 35° NE 21:23:18 35° NE 21:26:05 10° NNE
CZ-4B DEB 2.5 21:22:45 79° ENE 21:22:45 79° ENE 21:25:49 10° N
SAR-Lupe-4 3.9 21:20:27 21° S 21:22:42 64° WSW 21:26:17 10° NNW
Cosmos 1340 Rocket 3.8 21:19:10 10° N 21:22:08 30° NE 21:22:08 30° NE
Helios 1A 3.2 21:23:52 18° S 21:26:52 69° WSW 21:31:02 10° NNW
Cosmos 1125 Rocket 3.3 21:22:08 10° SSW 21:27:19 82° ESE 21:32:33 10° NNE
Cosmos 1048 Rocket 3.8 21:26:37 10° NNW 21:31:45 73° ENE 21:33:24 43° SE
Lacrosse 4 Rocket 4.4 21:29:58 10° W 21:32:22 15° NW 21:34:47 10° NNW
USA 267 4.3 21:30:04 23° ENE 21:33:10 34° NNE 21:38:54 10° NW
Cosmos 1802 Rocket 4.1 21:31:04 32° SE 21:33:33 49° E 21:39:26 10° NNE
Cosmos-2242 2.8 21:33:22 61° SE 21:33:43 65° E 21:37:57 10° NNE
Cosmos 1833 Rocket 2.7 21:29:48 10° NNW 21:35:24 64° ENE 21:36:55 46° ESE
Cosmos 2278 Rocket 3.3 21:31:11 10° SW 21:36:37 46° WNW 21:42:05 10° NNE
Cosmos 1758 4.2 21:35:19 10° SSW 21:39:09 48° W 21:43:02 10° N
Cosmos 1733 4.3 21:43:27 35° NNE 21:43:27 35° NNE 21:45:49 10° NNE
Lacrosse 5 3.0 21:37:12 10° WSW 21:42:01 43° NW 21:46:51 10° NE
Cosmos 2061 Rocket 4.0 21:38:33 18° S 21:43:20 66° E 21:49:42 10° NNE
ERS-1 Rocket 3.0 21:43:28 55° E 21:43:46 56° ENE 21:48:42 10° N
SPOT 5 4.0 21:47:10 32° NE 21:47:10 32° NE 21:51:15 10° N
Cosmos 1743 Rocket 4.3 21:42:10 10° N 21:45:27 41° NE 21:45:27 41° NE
Timation 2 Rocket 3.8 21:41:59 10° NNW 21:48:21 75° ENE 21:49:54 52° SE
Cosmos 1939 Rocket 2.9 21:48:08 71° SSW 21:48:27 77° WSW 21:52:38 10° NNW
Cosmos 1953 3.6 21:44:50 10° SSW 21:48:42 41° WNW 21:52:34 10° N
Cosmos 2297 3.8 21:44:17 10° SSW 21:49:59 77° WNW 21:55:45 10° NNE
Meteor 1-4 Rocket 4.1 21:47:12 10° SW 21:50:22 33° WNW 21:53:34 10° N
Meteor 1-29 4.3 21:48:11 10° N 21:51:27 40° WNW 21:53:40 18° SW
Cosmos 1818 3.8 21:48:39 10° NW 21:54:03 64° WSW 21:55:28 46° S
COSMOS 2487 3.5 21:51:30 10° NNW 21:54:10 45° NW 21:54:10 45° NW
ATLAS 5 CENTAUR R/B 3.5 21:51:52 10° SSW 21:53:19 20° SSW 21:53:19 20° SSW
Cosmos 2251 Rocket 4.3 21:55:17 10° N 21:59:22 37° NE 21:59:22 37° NE
Cosmos 2082 Rocket 2.4 22:01:14 10° NNW 22:06:52 65° WSW 22:08:04 51° SSW
Meteor 1-16 Rocket 4.5 22:11:54 58° NE 22:11:54 58° NE 22:16:49 10° NNE
CZ-3B DEB 3.9 22:04:11 10° W 22:11:51 31° NW 22:15:02 16° NNE
Cosmos 1459 Rocket 4.2 22:05:57 10° SSW 22:12:12 70° W 22:18:24 10° N
Lacrosse 5 rocket 3.0 22:08:51 10° NW 22:10:52 26° NNW 22:10:52 26° NNW
Cosmos 1271 Rocket 4.2 22:14:48 37° NW 22:14:48 37° NW 22:17:44 10° N
Terra 4.3 22:17:20 11° NNE 22:17:20 11° NNE 22:17:41 10° NNE
Cosmos 2173 Rocket 4.2 22:10:12 14° SSW 22:15:32 67° W 22:21:47 10° N
ARGOS 3.9 22:29:20 45° N 22:29:20 45° N 22:33:06 10° N
USA 215 3.9 22:37:16 10° NE 22:43:34 52° NNW 22:49:50 10° WSW
H-2A R/B 3.6 22:55:19 31° N 22:55:19 31° N 22:58:00 10° N
Cosmos 1725 Rocket 4.4 22:54:40 57° NNW 22:54:40 57° NNW 22:59:45 10° N
CZ-3 Stage 3 4.2 22:49:57 10° W 23:03:52 33° SW 23:03:52 33° SW
BREEZE-M DEB (TANK) 4.4 23:01:43 10° W 23:06:45 75° NNW 23:29:35 10° ENE
USA 267 3.8 23:17:25 54° NW 23:17:25 54° NW 23:22:16 10° NW
Lacrosse 5 4.5 23:23:10 10° NW 23:26:12 16° NNW 23:26:34 16° N
